Location: Helsinki
(60.1699°N, 24.9384°E)
Time: 22:57:11
(UTC+02:00)

Transit 4A - Pass Details

Date: 02 November 2020
Orbit: 862 x 982 km, 66.8° (Epoch: 30 November)

Event Time Altitude Azimuth Distance (km) Brightness Sun altitude
Rises 18:08:00 0° 271° (W) 3,665 12.9 -13.5°
Reaches altitude 10° 18:10:39 10° 277° (W) 2,729 11.7 -13.9°
Maximum altitude 18:16:51 49° 352° (N) 1,257 8.6 -14.6°
Enters shadow 18:21:27 18° 60° (ENE) 2,199 9.3 -15.2°
